Location: Unspecified
(46.0725°N, 13.7344°E)
Time: 02:19:21
(UTC+02:00)

Cosmos 2058 - Visible Passes

Search period start: 26 October 2021 00:00
Search period end: 04 November 2021 23:00
Orbit: 562 x 582 km, 82.5° (Epoch: 25 October)

Date Brightness Start Highest point End Pass type
(mag) Time Alt. Az. Time Alt. Az. Time Alt. Az.
26 Oct 4.8 19:27:15 10° NNE 19:28:26 15° NE 19:28:26 15° NE visible
26 Oct 5.4 21:03:29 10° NNW 21:04:37 17° NNW 21:04:37 17° NNW visible
27 Oct 4.5 19:29:34 10° NNE 19:31:29 20° NE 19:31:29 20° NE visible
27 Oct 5.4 21:06:15 10° NNW 21:07:42 19° NW 21:07:42 19° NW visible
28 Oct 4.0 19:31:57 10° N 19:34:40 27° NE 19:34:40 27° NE visible
28 Oct 5.5 21:09:03 10° NW 21:10:53 19° NW 21:10:53 19° NW visible
29 Oct 3.4 19:34:24 10° N 19:38:02 38° ENE 19:38:02 38° ENE visible
29 Oct 5.6 21:11:58 10° NW 21:14:16 18° WNW 21:14:16 18° WNW visible
30 Oct 3.0 19:36:52 10° N 19:41:00 50° ENE 19:41:41 45° ESE visible
30 Oct 5.8 21:15:01 10° NW 21:17:27 15° W 21:17:57 15° W visible
31 Oct 2.8 18:39:25 10° N 18:43:36 66° E 18:45:56 25° SSE visible
31 Oct 6.1 20:18:22 10° WNW 20:19:55 12° W 20:21:26 10° WSW visible
01 Nov 2.8 18:41:59 10° N 18:46:12 85° E 18:50:24 10° S visible
02 Nov 3.1 18:44:34 10° NNW 18:48:48 74° W 18:52:58 10° S visible
03 Nov 3.6 18:47:13 10° NNW 18:51:21 56° W 18:55:27 10° S visible
04 Nov 4.3 17:13:50 10° NNE 17:16:46 18° ENE 17:19:42 10° ESE visible
04 Nov 4.1 18:49:53 10° NNW 18:53:53 43° W 18:57:52 10° SSW visible
